Flag for Germany Weather past 2 weeks in Sindelfingen, Baden-Württemberg, Germany

Now
52 °F

Fog.


Feels Like: 52 °F
Forecast: 57 / 76 °F
Wind: 1 mph from East

Location: Stuttgart-Echterdingen

Current Time: Sep 17, 2014 at 7:54:03 AM

Latest Report: Sep 17, 2014 at 7:20 AM


Visibility: 1 mi

Pressure: 29.95 "Hg

Humidity: 100%

Dew point: 52 °F

Location of SindelfingenLocation

Historic Weather in Sindelfingen — Graph

°F

Sindelfingen temperature yesterday

Maximum temperature yesterday: 73 °F (at 2:50 PM)
Minimum temperature yesterday: 52 °F (at 3:50 AM)
Average temperature yesterday: 61 °F

Past Weeks' High & Low Weather Summary

 TemperatureHumidityPressure
High77 °F (Sep 6, 2:50 PM)100% (Sep 2, 7:50 AM)30.18 "Hg (Sep 2, 7:50 AM)
Low52 °F (Sep 11, 1:50 AM)50% (Sep 5, 5:20 PM)29.92 "Hg (Sep 6, 2:20 PM)
Average61 °F85%30.04 "Hg
* Reported Sep 2 6:20 AM — Sep 17 6:20 AM, Sindelfingen, Weather by CustomWeather, © 2014

Note: Actual official high and low records may vary slightly from our data, if they occured in-between our weather recording intervals... More about our weather records

Advertising

Sindelfingen weather history for previous 24 hours

 ConditionsComfort  
Time TempWeatherWind HumidityBarometerVisibility
6:20 AM
Sep 17
52 °FFog.1 mph100%29.95 "Hg2 mi
5:50 AM52 °FFog.2 mph100%29.95 "Hg2 mi
5:20 AM52 °FFog.1 mph100%29.95 "Hg2 mi
4:50 AM54 °FFog.2 mph100%29.95 "Hg2 mi
4:20 AM54 °FFog.2 mph100%29.95 "Hg2 mi
3:50 AM52 °FFog.2 mph100%29.95 "Hg3 mi
3:20 AM54 °FFog.2 mph100%29.95 "Hg3 mi
2:50 AM54 °FFog.1 mph94%29.95 "Hg3 mi
2:20 AM55 °FFog.1 mph94%29.95 "Hg5 mi
1:50 AM55 °FFog.1 mph94%29.95 "Hg5 mi
1:20 AM55 °FFog.2 mph94%29.95 "Hg6 mi
12:50 AM55 °FFog.1 mph94%29.98 "Hg6 mi
12:20 AM57 °FFog.1 mph94%29.98 "HgN/A
11:50 PM
Sep 16
57 °FClear.1 mph94%29.98 "Hg10 mi
11:20 PM57 °FClear.No wind94%29.98 "Hg10 mi
10:50 PM59 °FClear.1 mph88%29.98 "Hg10 mi
10:20 PM59 °FClear.1 mph94%29.98 "Hg10 mi
9:50 PM59 °FClear.1 mph94%29.98 "Hg10 mi
9:20 PM61 °FClear.No wind88%29.98 "Hg10 mi
8:50 PM61 °FClear.7 mph88%29.98 "Hg10 mi
8:20 PM63 °FSunny.5 mph83%29.98 "Hg10 mi
7:50 PM64 °FSunny.6 mph78%29.98 "Hg10 mi
7:20 PM66 °FSunny.7 mph73%29.95 "Hg10 mi
6:20 PM68 °FPassing clouds.8 mph69%29.95 "HgN/A
5:50 PM72 °FPassing clouds.8 mph61%29.95 "HgN/A
5:20 PM72 °FPassing clouds.7 mph65%29.95 "HgN/A
4:50 PM72 °FPassing clouds.9 mph65%29.95 "HgN/A
4:20 PM73 °FPassing clouds.5 mph61%29.95 "HgN/A
3:50 PM73 °FPassing clouds.N/A61%29.98 "HgN/A
3:20 PM73 °FPassing clouds.5 mph57%29.98 "HgN/A
2:50 PM73 °FPassing clouds.2 mph61%29.98 "HgN/A
2:20 PM72 °FPassing clouds.3 mph65%29.98 "HgN/A
1:50 PM70 °FPassing clouds.2 mph69%29.98 "HgN/A
1:20 PM68 °FScattered clouds.2 mph73%30.01 "HgN/A
12:50 PM68 °FScattered clouds.2 mph73%30.01 "HgN/A
12:20 PM68 °FPartly sunny.2 mph73%30.01 "HgN/A
11:50 AM66 °FPartly sunny.2 mph73%30.01 "Hg5 mi
11:20 AM64 °FSunny.2 mph83%30.01 "Hg10 mi
10:50 AM63 °FSunny.2 mph83%30.01 "Hg10 mi
10:20 AM63 °FSunny.1 mph83%30.01 "Hg10 mi
9:50 AM61 °FSunny.1 mph88%30.01 "Hg10 mi
9:20 AM57 °FScattered clouds.1 mph94%30.01 "Hg5 mi
8:50 AM54 °FScattered clouds.1 mph100%30.01 "Hg4 mi
8:20 AM54 °FScattered clouds.1 mph100%30.01 "Hg4 mi
7:50 AM52 °FFog.2 mph100%30.01 "Hg3 mi
7:20 AM52 °FFog.1 mph100%30.01 "Hg3 mi
Weather by CustomWeather, © 2014

See weather overviewHow to use our weather pages